www.pogodaiklimat.ru

Погода и климат >> Архив погоды >> Бразилия >> Сеара >> Кампус-Салис


ПОГОДА в Кампус-Салисе

  • Прогноз погоды в Кампус-Салисе
  • Монитор погоды в Кампус-Салисе

АРХИВ ПОГОДЫ в Кампус-Салисе

Время (UTC), дата Ветер
(напр.,м/с)
 
Видим.   Явления Облачность Т
(С)
Тd
(С)
f
(%)
Тe
(С)
Тes
(С)
Комфортность P
(гПа)
Po
(гПа)
Тmin
(С)
Tmax
(С)
R
(мм)
R24
(мм)
S
(см)
07 18.05 0 н/о н/о +21.3 +20.1 93 1012.5 946.8
08 18.05 0 н/о н/о +21.1 +20.6 97 1013.4 947.6
09 18.05 0 н/о н/о +21.2 +20.3 95 1014.4 948.6
10 18.05 0 н/о н/о +21.8 +20.9 95 1015.2 949.4
11 18.05 В 1
{3}
н/о н/о +23.3 +21.2 88 +31 +31 очень
душно
1015.4 949.9
12 18.05 В 3 н/о н/о +26.1 +22.0 78 +34 +34 очень
душно
1015.0 950.2 +21.0 36
13 18.05 В 2
{4}
н/о н/о +27.5 +22.0 72 +36 +36 очень
душно
1014.4 949.9
14 18.05 В 2
{4}
н/о н/о +28.7 +22.2 68 +37 +37 очень
душно
1013.8 949.6
15 18.05 В 2
{4}
н/о н/о +29.3 +22.6 67 +39 +39 очень
душно
1012.5 948.5
16 18.05 СВ 2
{4}
н/о н/о +29.3 +22.3 66 +38 +38 очень
душно
1011.2 947.3
17 18.05 В 2
{4}
н/о н/о +30.0 +22.3 63 +39 +39 очень
душно
1010.0 946.3
18 18.05 В 4 н/о н/о +29.5 +21.9 64 +38 +38 очень
душно
1009.6 945.8
19 18.05 В 2
{3}
н/о н/о +29.2 +21.2 62 +37 +37 очень
душно
1009.6 945.7
20 18.05 В 2
{3}
н/о н/о +27.8 +21.7 69 +36 +36 очень
душно
1010.1 945.9
21 18.05 В 1
{4}
н/о н/о +24.7 +22.0 85 +32 +32 очень
душно
1011.0 946.1
22 18.05 В 1
{1}
н/о н/о +24.2 +22.0 88 +31 +31 очень
душно
1012.3 947.2
23 18.05 В 1
{2}
н/о н/о +23.5 +22.0 91 +30 +30 очень
душно
1013.2 947.9
00 19.05 ЮВ 2 н/о н/о +23.2 +21.9 92 +31 +31 очень
душно
1013.8 948.4 +30.7
01 19.05 В 1
{2}
н/о н/о +22.4 +21.6 95 +30 +30 очень
душно
1013.8 948.3
02 19.05 штиль 0
{2}
н/о н/о +21.6 +21.1 97 +28 +28 очень
душно
1014.2 948.5
03 19.05 Ю 1
{1}
н/о н/о +22.2 +21.5 96 +29 +29 очень
душно
1014.1 948.5
04 19.05 Ю 1
{1}
н/о н/о +22.2 +21.5 96 +29 +29 очень
душно
1013.1 947.6
05 19.05 СВ 1
{1}
н/о н/о +22.0 +21.5 97 +29 +29 очень
душно
1012.7 947.1
06 19.05 В 1 н/о н/о +22.0 +21.7 98 +29 +29 очень
душно
1012.6 947.0
07 19.05 В 1
{2}
н/о н/о +22.1 +21.5 96 +29 +29 очень
душно
1013.1 947.5
08 19.05 В 2
{3}
н/о н/о +22.0 +21.3 96 +29 +29 очень
душно
1013.5 947.9
09 19.05 В 2
{3}
н/о н/о +21.8 +20.9 95 +28 +28 душно 1013.9 948.2
10 19.05 СВ 2
{3}
н/о н/о +22.2 +21.4 95 +29 +29 очень
душно
1014.3 948.7
11 19.05 СВ 2
{4}
н/о н/о +22.9 +21.8 94 +31 +31 очень
душно
1015.1 949.6
12 19.05 В 4 н/о н/о +24.5 +21.7 84 +31 +31 очень
душно
1015.4 950.2 +21.5
13 19.05 В 2
{4}
н/о н/о +26.1 +21.8 77 +34 +34 очень
душно
1015.0 950.2
14 19.05 В 2
{4}
н/о н/о +28.5 +22.0 68 +37 +37 очень
душно
1013.9 949.6
15 19.05 СВ 3
{4}
н/о н/о +29.5 +21.0 60 +37 +37 очень
душно
1012.5 948.5
16 19.05 СВ 2
{4}
н/о н/о +30.1 +20.9 58 +37 +37 очень
душно
1011.3 947.5
17 19.05 В 2
{4}
н/о н/о +29.8 +20.1 56 +36 +36 очень
душно
1010.4 946.6
18 19.05 В 4 н/о н/о +29.8 +21.0 59 +37 +37 очень
душно
1009.7 946.0
19 19.05 СВ 2
{4}
н/о н/о +29.5 +20.0 57 +36 +36 очень
душно
1010.0 946.2
20 19.05 В 1
{3}
н/о н/о +26.9 +20.7 69 +34 +34 очень
душно
1011.0 946.6
21 19.05 В 1
{2}
н/о н/о +24.7 +21.3 81 +31 +31 очень
душно
1012.2 947.2
22 19.05 СВ 1
{2}
н/о н/о +23.4 +20.7 85 +31 +31 очень
душно
1013.2 947.9
23 19.05 ЮВ 1
{2}
н/о н/о +23.2 +20.3 84 +30 +30 очень
душно
1013.8 948.4
00 20.05 ЮВ 1 н/о н/о +22.6 +20.4 87 +29 +29 очень
душно
1014.2 948.7 +30.6
01 20.05 ЮВ 1
{1}
н/о н/о +22.6 +20.8 90 +30 +30 очень
душно
1014.3 948.8
02 20.05 ЮВ 1
{1}
н/о н/о +22.8 +20.9 89 +30 +30 очень
душно
1014.2 948.7
03 20.05 ЮВ 1
{1}
н/о н/о +22.7 +21.0 90 +30 +30 очень
душно
1013.9 948.4
04 20.05 СВ 2
{3}
н/о н/о +21.8 +20.5 92 +28 +28 душно 1013.8 948.1
05 20.05 СВ 2
{3}
н/о н/о +22.2 +21.1 93 +29 +29 очень
душно
1013.5 947.9
06 20.05 В 2 н/о н/о +22.1 +21.0 93 +29 +29 очень
душно
1013.4 947.8
07 20.05 В 1
{3}
н/о н/о +21.5 +20.7 95 +27 +27 душно 1013.6 947.9
08 20.05 В 1
{2}
н/о н/о +21.5 +21.1 98 +27 +27 душно 1013.5 947.8
09 20.05 В 1
{2}
н/о н/о +21.9 +21.3 96 +28 +28 душно 1014.0 948.3
10 20.05 В 1
{2}
н/о н/о +22.2 +21.7 97 +29 +29 очень
душно
1014.4 948.8 0.4
11 20.05 В 2
{3}
н/о н/о +22.9 +21.8 94 +31 +31 очень
душно
1015.3 949.8 0.6
12 20.05 В 3 н/о н/о +24.6 +22.2 87 +32 +32 очень
душно
1015.5 950.3 +21.1 1
13 20.05 В 2
{4}
н/о н/о +25.6 +21.7 79 +33 +33 очень
душно
1015.4 950.4
14 20.05 В 2
{4}
н/о н/о +26.5 +22.0 76 +34 +34 очень
душно
1014.4 949.7
15 20.05 В 2
{4}
н/о н/о +27.6 +22.1 72 +36 +36 очень
душно
1013.2 948.8
16 20.05 СВ 2
{3}
н/о н/о +29.3 +21.8 64 +38 +38 очень
душно
1011.6 947.6
17 20.05 В 2
{4}
н/о н/о +29.6 +22.3 65 +39 +39 очень
душно
1010.5 946.7
18 20.05 СВ 3 н/о н/о +30.2 +21.9 61 +39 +39 очень
душно
1009.7 946.0
19 20.05 СВ 2
{3}
н/о н/о +29.7 +21.4 61 +38 +38 очень
душно
1009.8 946.0
20 20.05 СВ 1
{3}
н/о н/о +28.0 +21.5 68 +36 +36 очень
душно
1010.5 946.3
21 20.05 В 1
{2}
н/о н/о +24.7 +21.0 80 +31 +31 очень
душно
1011.4 946.5
22 20.05 В 1
{2}
н/о н/о +23.5 +21.0 86 +30 +30 очень
душно
1012.4 947.2
23 20.05 ЮВ 1
{2}
н/о н/о +22.8 +20.8 88 +30 +30 очень
душно
1013.0 947.6
00 21.05 ЮВ 1 н/о н/о +22.0 +20.6 92 +28 +28 душно 1013.9 948.3 +30.7
01 21.05 В 1
{1}
н/о н/о +21.2 +20.4 95 +26 +26 душно 1014.3 948.5
02 21.05 ЮВ 1
{1}
н/о н/о +20.9 +20.0 95 +27 +27 душно 1014.3 948.4
03 21.05 ЮВ 1
{2}
н/о н/о +20.4 +19.7 96 +26 +26 душно 1014.0 948.0
04 21.05 СВ 1
{2}
н/о н/о +19.2 +18.6 96 +23 +23 комфорт 1014.1 947.8
05 21.05 В 1
{1}
н/о н/о +19.2 +18.6 96 +23 +23 комфорт 1013.6 947.4
06 21.05 ЮВ 1 н/о н/о +19.4 +18.1 92 +23 +23 комфорт 1013.0 946.9
07 21.05 ЮВ 1
{2}
н/о н/о +18.8 +17.7 93 +22 +22 комфорт 1013.0 946.7
08 21.05 ЮВ 1
{2}
н/о н/о +19.1 +18.0 93 +22 +22 комфорт 1013.4 947.2
09 21.05 В 1
{2}
н/о н/о +19.1 +18.2 95 +22 +22 комфорт 1014.2 947.9
10 21.05 В 1
{2}
н/о н/о +21.5 +19.3 87 +26 +26 душно 1013.8 948.1
11 21.05 В 2
{3}
н/о н/о +24.0 +19.9 78 +29 +29 душно 1014.1 948.9
12 21.05 ЮВ 5 н/о н/о +25.3 +20.5 75 +31 +31 очень
душно
1014.0 949.1 +18.5
13 21.05 В 2
{4}
н/о н/о +27.3 +21.3 70 +35 +35 очень
душно
1013.5 949.0
14 21.05 ЮВ 2
{4}
н/о н/о +26.6 +20.5 69 +33 +33 очень
душно
1013.3 948.7
15 21.05 В 1
{4}
н/о н/о +27.3 +22.1 73 +35 +35 очень
душно
1012.4 948.0
16 21.05 В 1
{4}
н/о н/о +27.6 +21.5 69 +35 +35 очень
душно
1011.9 947.6
17 21.05 В 1
{2}
н/о н/о +28.1 +21.6 68 +36 +36 очень
душно
1010.9 946.7
18 21.05 В 1 н/о н/о +26.5 +22.4 78 +35 +35 очень
душно
1010.8 946.3
19 21.05 СВ 1
{2}
н/о н/о +27.1 +22.1 74 +35 +35 очень
душно
1010.7 946.3
20 21.05 В 1
{2}
н/о н/о +25.9 +22.8 83 +34 +34 очень
душно
1011.0 946.4
21 21.05 ЮВ 1
{3}
н/о н/о +24.8 +20.8 78 +31 +31 очень
душно
1011.6 946.7
22 21.05 ЮВ 1
{2}
н/о н/о +24.0 +21.1 84 +30 +30 очень
душно
1012.3 947.2
23 21.05 В 1
{1}
н/о н/о +22.5 +21.4 94 +30 +30 очень
душно
1013.0 947.5
00 22.05 Ю 1 н/о н/о +22.7 +21.2 91 +30 +30 очень
душно
1013.4 947.9 +29.1
01 22.05 СВ 1
{1}
н/о н/о +22.5 +21.7 95 +30 +30 очень
душно
1013.8 948.3
02 22.05 В 1
{1}
н/о н/о +22.5 +21.6 95 +30 +30 очень
душно
1014.0 948.5
03 22.05 В 1
{1}
н/о н/о +22.3 +21.3 94 +29 +29 очень
душно
1014.1 948.5
04 22.05 В 1
{2}
н/о н/о +22.4 +21.0 92 +29 +29 очень
душно
1014.0 948.4
05 22.05 В 1
{3}
н/о н/о +21.7 +20.6 93 +27 +27 душно 1013.4 947.7
06 22.05 В 2 н/о н/о +21.4 +20.8 96 +27 +27 душно 1013.3 947.6
07 22.05 В 1
{3}
н/о н/о +22.0 +20.7 92 +28 +28 душно 1013.3 947.7
08 22.05 В 1
{2}
н/о н/о +21.7 +21.0 96 +28 +28 душно 1013.6 947.9
09 22.05 В 1
{2}
н/о н/о +21.6 +20.7 95 +27 +27 душно 1014.1 948.4
10 22.05 В 2
{3}
н/о н/о +22.4 +20.1 87 +29 +29 очень
душно
1014.6 949.0
11 22.05 В 2
{4}
н/о н/о +24.4 +20.4 78 +30 +30 очень
душно
1015.2 950.0
12 22.05 В 4 н/о н/о +26.4 +20.8 71 +33 +33 очень
душно
1014.8 950.0 +21.2
13 22.05 ЮВ 2
{5}
н/о н/о +26.8 +19.8 66 +33 +33 очень
душно
1014.9 950.2
14 22.05 В 2
{4}
н/о н/о +27.1 +20.3 66 +33 +33 очень
душно
1014.4 949.8
15 22.05 В 2
{4}
н/о н/о +28.1 +20.9 65 +35 +35 очень
душно
1013.2 948.9
16 22.05 В 2
{4}
н/о н/о +29.6 +21.6 62 +38 +38 очень
душно
1011.9 948.0
17 22.05 В 2
{4}
н/о н/о +30.6 +21.6 59 +39 +39 очень
душно
1010.5 946.9
18 22.05 В 3 н/о н/о +29.2 +21.1 62 +37 +37 очень
душно
1010.2 946.3
19 22.05 В 2
{4}
н/о н/о +29.1 +21.1 62 +37 +37 очень
душно
1009.8 945.9
20 22.05 СВ 1
{3}
н/о н/о +27.9 +20.9 66 +35 +35 очень
душно
1010.2 946.0
21 22.05 В 1
{2}
н/о н/о +24.9 +20.6 77 +31 +31 очень
душно
1011.4 946.5
22 22.05 ЮВ 1
{2}
н/о н/о +23.5 +20.8 85 +29 +29 душно 1012.4 947.2
23 22.05 В 1
{2}
н/о н/о +22.6 +20.6 88 +29 +29 очень
душно
1013.3 947.8
00 23.05 Ю 2 н/о н/о +22.5 +20.6 89 +29 +29 очень
душно
1014.0 948.5 +30.6
01 23.05 Ю 1
{1}
н/о н/о +21.8 +20.6 93 +28 +28 душно 1014.5 948.8
02 23.05 ЮВ 1
{1}
н/о н/о +21.0 +20.2 95 +28 +28 очень
душно
1014.7 948.8
03 23.05 В 1
{1}
н/о н/о +20.7 +20.0 96 +27 +27 душно 1014.5 948.5
04 23.05 В 1
{1}
н/о н/о +20.7 +20.1 96 +27 +27 душно 1014.2 948.3
05 23.05 В 1
{1}
н/о н/о +20.6 +20.0 96 +27 +27 душно 1013.9 948.0
06 23.05 В 1 н/о н/о +20.8 +20.3 97 +27 +27 душно 1013.8 947.9
08 23.05 В 2
{2}
н/о н/о +20.9 +20.1 95 +27 +27 душно 1014.5 948.6
09 23.05 В 1
{2}
н/о н/о +20.4 +20.0 98 +26 +26 душно 1014.8 948.8
10 23.05 В 1
{2}
н/о н/о +21.8 +20.6 93 +28 +28 душно 1015.3 949.5
11 23.05 В 1
{3}
н/о н/о +23.9 +21.5 86 +30 +30 очень
душно
1015.3 950.0
12 23.05 В 3 н/о н/о +26.1 +21.2 74 +33 +33 очень
душно
1015.3 950.4 +20.4
13 23.05 В 1
{3}
н/о н/о +27.5 +20.8 67 +34 +34 очень
душно
1014.7 950.2
14 23.05 В 2
{3}
н/о н/о +28.3 +20.5 63 +35 +35 очень
душно
1014.0 949.7
15 23.05 ЮВ 2
{3}
н/о н/о +29.5 +21.1 61 +37 +37 очень
душно
1012.8 948.8
16 23.05 ЮВ 2
{3}
н/о н/о +29.9 +18.8 51 +35 +35 очень
душно
1011.5 947.7
17 23.05 ЮВ 2
{4}
н/о н/о +31.1 +18.7 48 +36 +36 очень
душно
1010.3 946.8
18 23.05 ЮВ 3 н/о н/о +30.4 +17.6 46 +34 +34 очень
душно
1010.1 946.5
19 23.05 ЮВ 2
{4}
н/о н/о +30.3 +18.3 49 +35 +35 очень
душно
1010.1 946.4
20 23.05 ЮВ 1
{3}
н/о н/о +28.5 +18.6 55 +34 +34 очень
душно
1010.8 946.7
21 23.05 В 1
{2}
н/о н/о +25.0 +19.3 71 +30 +30 душно 1012.1 947.2
22 23.05 Ю 1
{2}
н/о н/о +24.0 +19.3 75 +29 +29 душно 1012.7 947.6
23 23.05 Ю 1
{2}
н/о н/о +23.3 +19.4 79 +30 +30 очень
душно
1013.3 948.0
00 24.05 Ю 2 н/о н/о +22.3 +19.5 84 +28 +28 душно 1014.0 948.4 +31.2
01 24.05 В 1
{2}
н/о н/о +20.7 +19.6 93 +27 +27 душно 1014.6 948.6
02 24.05 В 1
{1}
н/о н/о +20.1 +19.2 95 +25 +25 комфорт 1014.4 948.3
03 24.05 ЮВ 1
{1}
н/о н/о +20.5 +19.2 92 +26 +26 душно 1014.1 948.1
04 24.05 ЮВ 1
{1}
н/о н/о +19.5 +18.9 96 +24 +24 комфорт 1014.1 947.9
05 24.05 ЮВ 1
{2}
н/о н/о +20.2 +18.9 92 +25 +25 комфорт 1013.6 947.6
06 24.05 ЮВ 2 н/о н/о +19.9 +18.6 92 +24 +24 комфорт 1013.5 947.4
07 24.05 В 2
{3}
н/о н/о +19.6 +18.3 92 +23 +23 комфорт 1014.0 947.8
08 24.05 В 1
{2}
н/о н/о +18.7 +18.0 96 +21 +21 комфорт 1014.9 948.5
09 24.05 В 1
{2}
н/о н/о +19.2 +18.5 96 +22 +22 комфорт 1015.0 948.7
10 24.05 В 1
{2}
н/о н/о +21.3 +19.5 89 +26 +26 душно 1015.2 949.3 0.2
11 24.05 В 1
{2}
н/о н/о +24.1 +20.3 79 +30 +30 очень
душно
1015.2 949.9
12 24.05 В 3 н/о н/о +26.7 +19.7 65 +32 +32 очень
душно
1015.0 950.3 +18.4 0.2
13 24.05 В 2
{3}
н/о н/о +27.5 +20.6 66 +34 +34 очень
душно
1014.5 950.0
14 24.05 В 2
{3}
н/о н/о +29.5 +21.0 60 +37 +37 очень
душно
1013.5 949.5
15 24.05 В 1
{3}
н/о н/о +29.5 +19.9 56 +36 +36 очень
душно
1012.7 948.7
16 24.05 СВ 1
{3}
н/о н/о +29.9 +19.6 54 +36 +36 очень
душно
1011.5 947.7
17 24.05 В 1
{3}
н/о н/о +31.5 +19.3 48 +37 +37 очень
душно
1010.4 947.0
18 24.05 ЮВ 3 н/о н/о +31.6 +18.3 45 +36 +36 очень
душно
1009.9 946.5
19 24.05 В 1
{3}
н/о н/о +31.0 +19.7 51 +37 +37 очень
душно
1010.1 946.6
20 24.05 ЮВ 1
{3}
н/о н/о +28.7 +19.2 56 +34 +34 очень
душно
1010.9 946.9
21 24.05 В 1
{2}
н/о н/о +25.2 +20.5 75 +31 +31 очень
душно
1012.3 947.4
22 24.05 ЮВ 1
{2}
н/о н/о +24.2 +20.4 79 +30 +30 очень
душно
1013.0 947.9
23 24.05 В 1
{1}
н/о н/о +22.7 +20.4 87 +29 +29 очень
душно
1013.6 948.1
00 25.05 ЮВ 1 н/о н/о +22.4 +20.1 87 +29 +29 очень
душно
1014.3 948.7 +31.9
01 25.05 ЮВ 1
{1}
н/о н/о +21.5 +20.1 92 +27 +27 душно 1014.6 948.8
02 25.05 В 1
{1}
н/о н/о +20.7 +19.9 95 +27 +27 душно 1014.6 948.6
03 25.05 В 1
{2}
н/о н/о +20.3 +19.5 95 +25 +25 комфорт 1014.4 948.4
04 25.05 Ю 1
{2}
н/о н/о +20.3 +19.4 95 +26 +26 душно 1014.2 948.2
05 25.05 ЮВ 1
{2}
н/о н/о +20.2 +19.4 95 +25 +25 комфорт 1013.9 947.9
06 25.05 В 1 н/о н/о +19.0 +18.7 98 +22 +22 комфорт 1014.2 947.9
07 25.05 ЮВ 1
{2}
н/о н/о +19.7 +19.0 96 +24 +24 комфорт 1014.3 948.1

 

Местоположение метеостанции Кампус-Салис (Сеара, Бразилия): широта -7.08 долгота -40.37 высота над уровнем моря 574 м.

В архиве по умолчанию представлена погода в Кампус-Салисе за последнюю неделю. Архивные данные за месяц целиком и за предыдущие месяцы, начиная с января 2011 года, Вы можете получить, выбрав интересующий диапазон дат из раскрывающегося списка и нажав кнопку "Ввод!".


*Определитесь, кто Вы:
робот инопланетянин человек

Внимание! Время в таблицах - всемирное. Для получения местного времени необходимо прибавить поправку, которая равна -3 ч.

Смотрите также архив погоды в соседних городах и на ближайших метеорологических станциях:

Погода в Орикури (, Бразилия) (63 км)
Погода в Пики (Пиауи, Бразилия) (114 км)
Погода в Тауа (Сеара, Бразилия) (118 км)
Погода в Тауа (Сеара, Бразилия) (120 км)
Погода в Барбалье (Сеара, Бразилия) (121 км)
Погода в Пикусе (Пиауи, Бразилия) (123 км)
Погода в Барбалье (Сеара, Бразилия) (124 км)
Погода в Игуату (Сеара, Бразилия) (143 км)
Погода в Паулистане (Пиауи, Бразилия) (145 км)
Погода в Валенса-ду-Пиауи (Пиауи, Бразилия) (168 км)

Пояснения к столбцам:

Ветер - указаны скорость ветра в м/с - средняя за 10 мин, порывы в срок и между сроками (в фигурных скобках) и направление, откуда дует ветер: С - северный, СВ - северо-восточный, В - восточный, ЮВ - юго-восточный, Ю - южный, ЮЗ - юго-западный, З - западный, СЗ - северо-западный.
Видимость - горизонтальная дальность видимости в метрах или километрах. При видимости от 1 до 10 км при отсутствии осадков обычно наблюдается дымка, при ухудшении видимости до 1 км и менее - туман. В сухую погоду видимость может ухудшаться дымом, пылью или мглою.
Явления - указаны атмосферные явления, наблюдавшиеся в срок или в последний час перед сроком; фигурными скобками обозначены явления, наблюдавшиеся между сроками (за 1-3 часа до срока); квадратными скобками обозначены град или гололедные отложения с указанием их диаметра в мм.
Облачность - указаны через наклонную черту общая и нижняя облачность в баллах и высота нижней границы облаков в метрах; квадратными скобками обозначены формы облаков: Ci - перистые, Cs - перисто-слоистые, Cc - перисто-кучевые, Ac - высококучевые, As - высокослоистые, Sc - слоисто-кучевые, Ns - слоисто-дождевые, Cu - кучевые, Cb - кучево-дождевые. Подробнее классификацию облаков см. в Атласе облаков (PDF).
T - Температура воздуха - температура, измеренная на высоте 2 м над землей.
Td - Температура точки росы - температура, при понижении до которой содержащийся в воздухе водяной пар достигнет насыщения.
f - Относительная влажность воздуха - влажноcть воздуха, измеренная на высоте 2 м над землей.
Te - Эффективная температура - температура, которую ощущает одетый по сезону человек в тени. Характеристика душности погоды. При расчете учитывается влияние влажности воздуха и скорости ветра на теплоощущения человека.
Tes - Эффективная температура на солнце - температура, которую ощущает человек, с поправкой на солнечный нагрев. Характеристика знойности погоды. Зависит от высоты солнца над горизонтом, облачности и скорости ветра. Ночью, в пасмурную погоду, а также при ветре 12 м/с и более поправка равна нулю.
P - Атмосферное давление - приведенное к уровню моря атмосферное давление.
Po - Атмосферное давление - измеренное на уровне метеостанции атмосферное давление.
Tmin - Минимальная температура - минимум температуры воздуха на высоте 2 м над землей.
Tmax - Максимальная температура - максимум температуры воздуха на высоте 2 м над землей.
R - Количество осадков - Количество выпавших осадков за период времени, мм. При наведении курсора мыши на число - период времени, за который выпало указанное количество осадков.
R24 - Количество осадков - Количество выпавших осадков за 24 часа, мм.
S - Снежный покров - Высота снежного покрова, см. При наведении курсора мыши на число - состояние снежного покрова и степень покрытия местности в баллах.